星链-34170 (STARLINK-34170)

导读

STARLINK-34170是美国于2025年5月13日发射的星链卫星,隶属于SpaceX公司的星链互联网星座项目。星链项目旨在通过近地轨道卫星群,为全球提供覆盖广泛的高速低延迟互联网服务,该卫星入轨后将参与星座组网,进一步完善星链系统的全球服务覆盖能力。

Basic Information
目录编号:
63955
目录名称:
STARLINK-34170
国际标识:
2025-099D
轨道中心:
EARTH
卫星名称:
星链-34170
卫星全名:
星链-34170 (STARLINK-34170)
卫星状态:
在轨 (已飞行480 天)
发射日期:
2025-05-13 UTC
国别 :
美国 (US)
星等 :
--
Orbit Information
数据来源 国际轨道数据
星历时间: 2026-09-05T09:16:16+0800
7小时前
查看轨道信息
半长轴: 6861.149km
偏心率: 0.0001371
轨道倾角: 43.000°
近地点辐角 240.829°
升交点赤经 243.617°
平近点角 119.242°
近地点: 482.071km
远地点: 483.953km
周期: 94.266分钟
每日圈数: 15.275924
Detailed Information
固有亮度:
5
最大亮度:
2.5
卫星平台:
Starlink V1.0
覆盖范围:
全球
运营商:
太空探索技术公司
运营商所在国:
美国
制造商(研发单位):
太空探索技术公司
制造商所在国:
美国
使用方式:
暂无
Satellite Introduction
Starlink 计划是 SpaceX 推出的全球卫星互联网项目,通过发射低轨道卫星,为全球尤其是偏远地区提供高速、低延迟的互联网服务。自 2019 年起,Starlink 已部署数千颗卫星,旨在缩小全球数字鸿沟,推动互联网普及。该项目还为军事、航空等行业提供通信支持,带来广泛经济效益。
2D Orbit Map
3D Orbit Map
Orbit Altitude Analysis Chart
Orbit Inclination Analysis Chart
Orbit Comprehensive Analysis Chart
View Comprehensive Chart
Conjunction Data List
Event ID Objects TCA Miss Dist (km) Collision Risk Probability Collision Risk Index (CRI) Action
CDM_260905-180706-266006-395521
2026-09-05T
18:07:06+0000
2.227 km
极远距离
1.874735E-6 低风险 0.4
CDM_260906-181506-395506-430021
2026-09-06T
18:15:03+0000
2.561 km
极远距离
1.48052E-6 低风险 0.38
CDM_260906-075505-306306-395521
2026-09-06T
07:55:47+0000
2.871 km
极远距离
1.388238E-6 低风险 0.38
CDM_260907-121905-809606-395521
2026-09-07T
12:19:58+0000
2.507 km
极远距离
1.206507E-6 低风险 0.37
CDM_260907-102905-949906-395521
2026-09-07T
10:29:49+0000
2.835 km
极远距离
1.168297E-6 低风险 0.36